Flag for Germany Weather past 2 weeks in Konstanz, Baden-Württemberg, Germany

Now
38 °F

Clear.


Feels Like: 33 °F
Forecast: 33 / 48 °F
Wind: 6 mph from West

Location: Konstanz

Current Time: Dec 22, 2014 at 2:40:05 AM

Latest Report: Dec 22, 2014 at 2:00 AM


Visibility: 44 mi

Pressure: 30.50 "Hg

Humidity: 79%

Dew point: 32 °F

Location of KonstanzLocation

Historic Weather in Konstanz — Graph

°F

Konstanz temperature yesterday

Maximum temperature yesterday: 43 °F (at 1:00 PM)
Minimum temperature yesterday: 38 °F (at 9:00 PM)
Average temperature yesterday: 40 °F

Past Weeks' High & Low Weather Summary

 TemperatureHumidityPressure
High54 °F (Dec 19, 2:00 PM)100% (Dec 10, 5:00 AM)30.59 "Hg (Dec 10, 5:00 AM)
Low30 °F (Dec 10, 4:00 AM)49% (Dec 13, 2:00 PM)29.85 "Hg (Dec 12, 10:00 PM)
Average42 °F82%30.16 "Hg
* Reported Dec 7 1:00 AM — Dec 22 1:00 AM, Konstanz, Weather by CustomWeather, © 2014

Note: Actual official high and low records may vary slightly from our data, if they occured in-between our weather recording intervals... More about our weather records

Advertising

Konstanz weather history for previous 24 hours

 ConditionsComfort  
Time TempWeatherWind HumidityBarometerVisibility
1:00 AM
Dec 22
38 °FClear.6 mph79%30.51 "Hg43 mi
12:00 AM38 °FClear.6 mph80%30.53 "Hg40 mi
11:00 PM
Dec 21
38 °FClear.6 mph79%30.53 "Hg40 mi
10:00 PM38 °FClear.3 mph82%30.55 "Hg31 mi
9:00 PM38 °FClear.2 mph83%30.56 "Hg28 mi
8:00 PM39 °FPassing clouds.3 mph82%30.56 "Hg28 mi
7:00 PM40 °FOvercast.2 mph81%30.56 "Hg37 mi
6:00 PM39 °FOvercast.2 mph80%30.55 "Hg43 mi
5:00 PM40 °FPassing clouds.2 mph77%30.54 "Hg47 mi
4:00 PM41 °FPartly sunny.3 mph72%30.54 "Hg47 mi
3:00 PM43 °FOvercast.3 mph68%30.55 "Hg37 mi
2:00 PM43 °FOvercast.5 mph66%30.56 "Hg28 mi
1:00 PM43 °FOvercast.3 mph66%30.57 "Hg25 mi
12:00 PM42 °FOvercast.3 mph71%30.58 "Hg25 mi
11:00 AM42 °FScattered clouds.5 mph70%30.59 "Hg25 mi
10:00 AM40 °FPassing clouds.5 mph76%30.59 "Hg25 mi
9:00 AM38 °FScattered clouds.3 mph83%30.59 "Hg25 mi
8:00 AM39 °FOvercast.5 mph82%30.58 "Hg25 mi
7:00 AM38 °FPassing clouds.3 mph85%30.57 "Hg25 mi
6:00 AM39 °FPassing clouds.3 mph81%30.57 "Hg25 mi
5:00 AM40 °FOvercast.5 mph82%30.56 "Hg43 mi
4:00 AM40 °FDrizzle. Overcast.5 mph80%30.55 "Hg25 mi
3:00 AM41 °FFog.6 mph78%30.54 "Hg43 mi
2:00 AM41 °FOvercast.7 mph74%30.52 "Hg43 mi
Weather by CustomWeather, © 2014

See weather overviewHow to use our weather pages